Home > Weather > Clearwater > Past weeks

Flag for USA Weather for the Past 2 Weeks in Clearwater, Florida, USA

Now
76 °F

Passing clouds.


Feels Like: 76 °F
Forecast: 75 / 83 °F
Wind: 5 mph from Southwest

Location: St. Petersburg / Clearwater International Airport

Current Time: May 3, 2016 at 1:12:29 AM

Latest Report: May 2, 2016 at 11:53 PM


Visibility: 10 mi

Pressure: 30.01 "Hg

Humidity: 85%

Dew Point: 71 °F

Location of ClearwaterLocation

Historic Weather in Clearwater — Graph

°F

Clearwater Temperature Yesterday

Maximum temperature yesterday: 87 °F (at 2:53 PM)
Minimum temperature yesterday: 74 °F (at 5:53 AM)
Average temperature yesterday: 80 °F

High & Low Weather Summary for the Past Weeks

 TemperatureHumidityPressure
High91 °F (Apr 29, 2:53 PM)94% (Apr 24, 3:53 AM)30.24 "Hg (Apr 24, 3:53 AM)
Low62 °F (Apr 18, 3:53 AM)35% (Apr 20, 2:53 PM)29.88 "Hg (Apr 27, 3:53 AM)
Average76 °F68%30.01 "Hg
* Reported Apr 17 10:53 PM — May 2 10:53 PM, Clearwater, Weather by CustomWeather, © 2016

Note: Actual official high and low records may vary slightly from our data, if they occured in-between our weather recording intervals... More about our weather records

Advertising

Clearwater Weather History for the Previous 24 Hours

Scroll right to see more
 ConditionsComfort  
Time TempWeatherWind HumidityBarometerVisibility
10:53 PM
Mon, May 2
77 °FPassing clouds.6 mph82%30.00 "Hg10 mi
9:53 PM77 °FPassing clouds.5 mph82%29.99 "Hg10 mi
8:53 PM78 °FSunny.10 mph79%29.97 "Hg10 mi
7:53 PM80 °FSunny.12 mph71%29.95 "Hg10 mi
6:53 PM83 °FSunny.12 mph61%29.94 "Hg10 mi
5:53 PM84 °FSunny.14 mph61%29.95 "Hg10 mi
4:53 PM85 °FSunny.15 mph59%29.96 "Hg10 mi
3:53 PM87 °FSunny.17 mph55%29.97 "Hg10 mi
2:53 PM87 °FScattered clouds.16 mph53%29.99 "Hg10 mi
1:53 PM86 °FPartly sunny.14 mph59%30.01 "Hg10 mi
12:53 PM84 °FScattered clouds.12 mph61%30.02 "Hg10 mi
11:53 AM86 °FBroken clouds.14 mph59%30.03 "Hg10 mi
10:53 AM84 °FPartly sunny.12 mph67%30.03 "Hg10 mi
9:53 AM79 °FPartly sunny.12 mph77%30.04 "Hg10 mi
8:53 AM78 °FScattered clouds.10 mph82%30.03 "Hg10 mi
7:53 AM75 °FScattered clouds.10 mph88%30.02 "Hg10 mi
6:53 AM74 °FClear.10 mph88%30.01 "Hg10 mi
5:53 AM74 °FClear.9 mph88%30.00 "Hg10 mi
4:53 AM75 °FClear.10 mph85%29.99 "Hg10 mi
3:53 AM75 °FClear.9 mph82%29.99 "Hg10 mi
2:53 AM76 °FClear.13 mph80%29.99 "Hg10 mi
1:53 AM77 °FClear.14 mph77%30.00 "Hg10 mi
Weather by CustomWeather, © 2016

See weather overviewHow to use our weather pages